This is the latest recevied weather packets stored in our database for station/object 9M2MIN-1. If no packets are shown the sender has not sent any weather packets the latest 10 day(s).
| Time | Temp. | Humidity | Pressure | Rain* | Wind** | Luminosity | Snow |
|---|---|---|---|---|---|---|---|
| 1777468528 | 32.22° C | 76% | 1008.7 hPa | - | - | - | - |
| 1777467628 | 32.22° C | 75% | 1008.5 hPa | - | - | - | - |
| 1777466728 | 32.22° C | 76% | 1008.2 hPa | - | - | - | - |
| 1777465828 | 32.78° C | 76% | 1007.8 hPa | - | - | - | - |
| 1777464928 | 32.22° C | 75% | 1007.5 hPa | - | - | - | - |
| 1777464027 | 32.78° C | 76% | 1007.3 hPa | - | - | - | - |
| 1777463188 | 32.78° C | 74% | 1006.9 hPa | - | - | - | - |
| 1777462288 | 32.78° C | 73% | 1006.8 hPa | - | - | - | - |
| 1777461388 | 32.78° C | 73% | 1006.7 hPa | - | - | - | - |
| 1777460488 | 32.78° C | 72% | 1006.7 hPa | - | - | - | - |
| 1777459588 | 32.78° C | 70% | 1006.5 hPa | - | - | - | - |
| 1777458688 | 32.78° C | 71% | 1006.3 hPa | - | - | - | - |
| 1777457787 | 33.33° C | 70% | 1006.2 hPa | - | - | - | - |
| 1777456887 | 33.33° C | 69% | 1006.1 hPa | - | - | - | - |
| 1777455990 | 32.78° C | 69% | 1005.9 hPa | - | - | - | - |
| 1777455090 | 33.33° C | 66% | 1005.9 hPa | - | - | - | - |
| 1777454190 | 33.33° C | 67% | 1005.7 hPa | - | - | - | - |
| 1777453290 | 33.33° C | 66% | 1005.4 hPa | - | - | - | - |
| 1777452390 | 33.33° C | 66% | 1005.4 hPa | - | - | - | - |
| 1777451490 | 33.89° C | 65% | 1005.5 hPa | - | - | - | - |
| 1777450590 | 33.89° C | 66% | 1005.7 hPa | - | - | - | - |
| 1777449689 | 33.33° C | 67% | 1006 hPa | - | - | - | - |
| 1777448789 | 33.33° C | 69% | 1006.2 hPa | - | - | - | - |
| 1777447889 | 33.33° C | 69% | 1006.3 hPa | - | - | - | - |
| 1777446989 | 33.33° C | 70% | 1006.5 hPa | - | - | - | - |
* Rain since midnight (hover to see other rain measurements)
** Current wind speed in m/s (hover to see current wind gust speed)